Flag for Germany Weather past 2 weeks in Gotha, Thuringia, Germany

Now
66 °F

Partly sunny.


Feels Like: 66 °F
Forecast: 64 / 78 °F
Wind: 6 mph from Northeast

Location: Erfurt-Bindersleben

Current Time: Jul 22, 2014 at 10:20:13 AM

Latest Report: Jul 22, 2014 at 9:00 AM


Visibility: 16 mi

Pressure: 29.97 "Hg

Humidity: 81%

Dew point: 60 °F

Location of GothaLocation

Historic Weather in Gotha — Graph

°F

Gotha temperature yesterday

Maximum temperature yesterday: 75 °F (at 2:00 PM)
Minimum temperature yesterday: 65 °F (at 5:00 AM)
Average temperature yesterday: 70 °F

Past Weeks' High & Low Weather Summary

 TemperatureHumidityPressure
High88 °F (Jul 19, 5:00 PM)98% (Jul 8, 10:00 AM)30.20 "Hg (Jul 8, 10:00 AM)
Low52 °F (Jul 13, 5:00 AM)27% (Jul 19, 7:00 PM)29.64 "Hg (Jul 9, 2:00 AM)
Average67 °F72%29.92 "Hg
* Reported Jul 7 9:00 AM — Jul 22 9:00 AM, Gotha, Weather by CustomWeather, © 2014

Note: Actual official high and low records may vary slightly from our data, if they occured in-between our weather recording intervals... More about our weather records

Advertising

Gotha weather history for previous 24 hours

 ConditionsComfort  
Time TempWeatherWind HumidityBarometerVisibility
9:00 AM
Jul 22
66 °FPartly sunny.6 mph81%29.97 "Hg16 mi
8:00 AM65 °FPartly sunny.5 mph85%29.96 "Hg16 mi
7:00 AM62 °FPartly sunny.3 mph90%29.95 "Hg16 mi
6:00 AM62 °FPartly sunny.3 mph90%29.94 "Hg16 mi
5:00 AM64 °FOvercast.3 mph88%29.91 "Hg16 mi
4:00 AM64 °FOvercast.2 mph90%29.91 "Hg16 mi
3:00 AM66 °FOvercast.3 mph89%29.90 "Hg12 mi
2:00 AM67 °FOvercast.5 mph91%29.89 "Hg12 mi
1:00 AM67 °FThunderstorms. Low clouds.5 mph94%29.88 "Hg7 mi
12:00 AM67 °FThundershowers. Low clouds.5 mph95%29.88 "Hg9 mi
11:00 PM
Jul 21
68 °FThunderstorms. Low clouds.6 mph94%29.87 "Hg5 mi
10:00 PM69 °FThunderstorms. Overcast.2 mph92%29.85 "Hg9 mi
9:00 PM70 °FThundershowers. Overcast.2 mph89%29.86 "Hg3 mi
8:00 PM72 °FThunderstorms. Overcast.2 mph82%29.85 "Hg10 mi
7:00 PM72 °FLight rain. Overcast.2 mph79%29.84 "Hg10 mi
6:00 PM72 °FOvercast.2 mph81%29.84 "Hg9 mi
5:00 PM71 °FOvercast.5 mph84%29.84 "Hg7 mi
4:00 PM73 °FOvercast.2 mph71%29.83 "Hg16 mi
3:00 PM73 °FOvercast.2 mph71%29.83 "Hg22 mi
2:00 PM75 °FOvercast.2 mph66%29.82 "Hg19 mi
1:00 PM74 °FOvercast.2 mph75%29.82 "Hg16 mi
12:00 PM73 °FOvercast.1 mph73%29.82 "Hg12 mi
11:00 AM71 °FOvercast.2 mph81%29.82 "Hg11 mi
10:00 AM70 °FOvercast.1 mph84%29.80 "Hg10 mi
Weather by CustomWeather, © 2014

See weather overviewHow to use our weather pages